Weather in Jaroslaw

Poland     50°02′37″N   22°40′10″E
temp.,
°C
wind,
m/s
gust,
m/s
humid.,
%
clouds,
%
prec.,
mm/h
press.,
hPa
HPBL,
m
26 february, fri
fri2601:00+6wsw511840 0.0 1029203
04:00+6wsw49850 0.0 1028153
07:00+5wsw49860 0.0 1027161
10:00+10w58700 0.0 1026425
13:00+13w58630 0.0 1024621
16:00+11w58710 0.0 1023404
19:00+8w598633 0.0 1024229
22:00+6nw41076100 0.8 1024601
27 february, sat
sat2701:00+5wnw51181100 0.8 1026571
04:00+4wnw61286100 0.0 1025671
07:00+4wnw7128497 0.1 1025812
10:00+4wnw81282100 0.1 1026896
13:00+5nw71276100 0.2 10261158
16:00+5nw7127175 0.1 10271094
19:00+4nw6117387 0.2 1028877
22:00+3nw5117595 0.0 1030721
28 february, sun
sun2801:00+1nw5118964 0.1 1031478
04:000nw698948 0.0 1031596
07:000nw578473 0.0 1032648
10:00+1nw5678100 0.0 1033645
13:00+4nw5861100 0.0 1033911
16:00+5nw58610 0.0 1032952
19:00+2wnw397716 0.0 1033217
22:00+1wnw4982100 0.0 1033258
1 march, mon
mon101:00+1wnw598699 0.2 1033343
04:000nw589899 0.1 1033347
07:00+1nnw359899 0.4 1034194
10:00+3nw3489100 0.0 1036302
13:00+4nw237896 0.1 1037461
16:00+5nw468293 0.1 1036499
19:00+4wnw238991 0.1 1037136
22:00+3w3489100 0.0 1038142
2 march, tue
tue201:00+3w359198 0.0 1038115
04:00+1w339226 0.0 103873
07:00+1w239214 0.0 103761
10:00+6wnw347464 0.0 1037384
13:00+9wnw346267 0.0 1036644
16:00+9w356528 0.0 1035414
19:00+5w348114 0.0 103562
22:00+4wsw338228 0.0 103559